Вернуться в каталог

VM-3.1

АктивенНаукаSSO
NORAD 67273·PAYLOAD·🇷🇺 Russia
Это название спутника еще не подтверждено официальными источниками.

Запущен Dec 28, 2025 с Vostochny Cosmodrome

Loading…

Ближайшие Пролёты (ближайшие 24 часа)

TLE

СвежийSource: Space-Track

Эпоха: Sep 13, 2026, 18:42 UTC

1 67273U 25313AB  26256.77984993  .00002146  00000-0  98010-4 0  9991
2 67273  97.3885 329.6108 0015558  63.9640 296.3196 15.21565129 39407

Отслеживайте VM-3.1 в реальном времени с AllMySat

Download on the App Store